Simultaneous Nadir Overpasses (SNOs) Predictions

Prediction of SNOs between AQUA and NOAA-19 Satellite Orbit:

Table of predicted SNOs for the next 14.0 days since TLE Epoch: 10/20/2017
Index Date (AQUA) Time (AQUA) Lat,Lon (AQUA) SZA (AQUA ) Date (NOAA-19) Time (NOAA-19) Lat,Lon (NOAA-19) SZA (NOAA-19 ) Distance(km) Time Diff (sec)
1 10/20/2017 22:33:40 -80.92, -18.61 86.73 10/20/2017 22:33:41 -80.92, -18.68 86.72 1.22 1
2 10/23/2017 04:07:25 80.93, 77.90 94.06 10/23/2017 04:07:25 80.92, 77.82 94.07 1.75 0
3 10/25/2017 09:41:09 -80.91, 174.69 85.21 10/25/2017 09:41:09 -80.92, 174.53 85.19 2.95 0
4 10/27/2017 15:14:54 80.93, -88.94 95.57 10/27/2017 15:14:54 80.92, -88.99 95.57 1.14 0
5 10/29/2017 20:48:39 -80.94, 7.51 83.68 10/29/2017 20:48:37 -80.92, 7.63 83.70 2.79 2
6 11/01/2017 02:22:22 80.91, 104.44 96.99 11/01/2017 02:22:22 80.92, 104.46 97.00 1.61 0




NCC Satellite Simultaneous Nadir Overpasses (SNOs) Prediction Service
